Regional Weather Roundup
Issued by NWS

Home | Current Version | Previous Version | Graphics & Text | Print | Product List | Glossary On
Versions: 1 2 3 4 5 6 7 8 9 10 11 12 13 14 15 16 17 18 19 20 21 22 23 24 25 26 27 28 29 30 31 32 33 34 35 36 37 38 39 40 41 42 43 44 45 46 47 48 49 50
122
ASUS43 KMKX 231911
RWRWI

WISCONSIN REGIONAL WEATHER ROUNDUP
NATIONAL WEATHER SERVICE MILWAUKEE/SULLIVAN WI
200 PM CDT WED AUG 23 2017

NOTE: "FAIR" INDICATES FEW OR NO CLOUDS BELOW 12,000 FEET WITH NO
SIGNIFICANT WEATHER AND/OR OBSTRUCTIONS TO VISIBILITY.

WIZ001-002-006>008-014>016-023>028-232000-
NORTHWEST WISCONSIN

CITY           SKY/WX    TMP DP  RH WIND       PRES   REMARKS
SUPERIOR ARPT    N/A     66  48  53 CALM      30.07F
ASHLAND        MOSUNNY   64  48  56 N10       30.08F
HAYWARD        MOSUNNY   66  46  48 VRB3      30.08F
SIREN          MOSUNNY   68  46  45 NW7       30.08F
CUMBERLAND     PTSUNNY   64  45  48 N10       30.09S
RICE LAKE      MOSUNNY   67  49  51 NW6       30.09F
CHETEK         MOSUNNY   68  51  54 NW3       30.08F
LADYSMITH      PTSUNNY   66  46  48 NW8G17    30.09S
EAU CLAIRE     PTSUNNY   70  50  49 N9        30.07S
MENOMONIE      MOSUNNY   68  50  52 NW8       30.08S
NEW RICHMOND   MOSUNNY   68  49  52 N7        30.09F
OSCEOLA        MOSUNNY   68  51  53 NW8       30.11F
$$

WIZ003>005-009-010-017-018-232000-
NORTH CENTRAL WISCONSIN

CITY           SKY/WX    TMP DP  RH WIND       PRES   REMARKS
MANITOWISH WTR MOSUNNY   62  49  61 N12       30.06S
ARBOR VITAE    MOSUNNY   64  48  55 NW13G20   30.06S
WOODRUFF       MOSUNNY   64  48  55 NW13G20   30.06S
RHINELANDER    MOSUNNY   65  46  50 W10G18    30.05F
EAGLE RIVER    PTSUNNY   64  46  52 N12G21    30.05S
LAND O LAKES   MOSUNNY   63  44  50 NW9G20    30.07S
PHILLIPS       MOSUNNY   65  49  56 N7        30.06F
TOMAHAWK         N/A     64  46  52 NW12      30.06S
MEDFORD        MOSUNNY   65  49  54 NW9       30.06S
MERRILL        PTSUNNY   66  50  55 NW9       30.05S
$$

WIZ029-030-035-036-043>047-232000-
CENTRAL WISCONSIN

CITY           SKY/WX    TMP DP  RH WIND       PRES   REMARKS
WAUSAU         MOSUNNY   70  47  43 NW12G21   30.03F
MOSINEE        MOSUNNY   70  48  46 NW13G21   30.06S
MARSHFIELD     PTSUNNY   66  48  52 NW12      30.05F
STEVENS POINT  PTSUNNY   65  48  52 NW8       30.05S
WAUPACA        PTSUNNY   73  48  41 NW7G17    30.03S
WAUTOMA        PTSUNNY   72  50  45 NW12G20   30.04F
WISC RAPIDS    MOSUNNY   71  50  47 NW15      30.06F
CAMP DOUGLAS   PTSUNNY   73  52  46 W17       30.06S
$$

WIZ011>013-019>022-031-037>040-048>050-232000-
NORTHEAST WISCONSIN

CITY           SKY/WX    TMP DP  RH WIND       PRES   REMARKS
ANTIGO         MOSUNNY   64  49  57 W13G18    30.04S
SHAWANO        PTSUNNY   72  49  45 N7        30.01S
OCONTO         PTSUNNY   69  49  49 NW7       30.00S
STURGEON BAY   SUNNY     66  50  56 NW10      30.01F
GREEN BAY      MOSUNNY   71  54  54 NW8       30.01S
MANITOWOC      PTSUNNY   70  52  52 NW8       30.02S
APPLETON       PTSUNNY   70  45  40 NW12      30.02R
CLINTONVILLE   CLOUDY    70  46  43 N10G20    30.02S
OSHKOSH        MOSUNNY   69  50  50 NW12      30.02F
$$

WIZ032>034-041-042-053>061-232000-
SOUTHWEST WISCONSIN

CITY           SKY/WX    TMP DP  RH WIND       PRES   REMARKS
LA CROSSE      MOSUNNY   77  53  43 NW12      30.07F
SPARTA         PTSUNNY   71  51  48 NW12G20   30.08S
VIROQUA        PTSUNNY   70  53  55 NW13      30.09S
BOSCOBEL       MOSUNNY   77  50  38 NW7       30.07F
PRAIRIE DU CHI PTSUNNY   73  45  36 NW12      30.07S
PLATTEVILLE    MOSUNNY   74  53  47 W10G16    30.08S
$$

WIZ056-057-062-063-064-067-068-232000-
SOUTH CENTRAL WISCONSIN

CITY           SKY/WX    TMP DP  RH WIND       PRES   REMARKS
REEDSBURG      PTSUNNY   73  51  45 NW8       30.06S
BARABOO/DELLS  PTSUNNY   70  46  42 NW10      30.06S
LONE ROCK      MOSUNNY   71  53  52 NW13      30.06F
MINERAL POINT  PTSUNNY   73  52  46 W8G16     30.07F
MADISON        PTSUNNY   72  51  47 NW10      30.05S
MIDDLETON      MOSUNNY   72  51  47 NW9G17    30.06S
WATERTOWN      CLOUDY    69  52  53 W6        30.04S
MONROE         MOSUNNY   72  50  46 NW6G17    30.06F
JANESVILLE     MOSUNNY   75  52  43 NW6G16    30.05S
$$

WIZ051-052-058>065-066-070>072-232000-
SOUTHEAST WISCONSIN

CITY           SKY/WX    TMP DP  RH WIND       PRES   REMARKS
MILWAUKEE      PTSUNNY   73  54  51 N10       30.03S
WAUKESHA       PTSUNNY   68  48  49 NW6       30.05S
MILWAUKEE/TIMM CLOUDY    70  45  40 N10       30.04S
RACINE         PTSUNNY   74  52  46 VRB6      30.05S
KENOSHA        MOSUNNY   74  50  42 NW13      30.04S
FOND DU LAC    MOSUNNY   71  48  43 NW8G18    30.03S
SHEBOYGAN      MOSUNNY   71  54  54 VRB5      30.02S
WEST BEND      PTSUNNY   70  50  49 N8G17     30.03S
JUNEAU         CLOUDY    68  50  52 W5        30.05S
$$

LSZ147-162-232000-
LAKE SUPERIOR

STATION/POSITION TIME  TEMP    WIND        PRES    WAVE
                       AIR SEA DIR/SP/G            HT/PER
                 (UTC) (F)     (DEG/KT/KT) (MB)    (FT/S)
W MID LAKE BUOY  1850   59 60  290/  8/  8 1018.2R   2/ 4
DEVILS ISLAND    1900   60      CALM  /  1 1018.5F
PORT WING        1630   77     290/  5/  7 1019.3
SAXON HARBOR     1840   61      40/ 10/ 12 1018.6S
$$

LMZ867-665-643>646-232000-
LAKE MICHIGAN

STATION/POSITION TIME  TEMP    WIND        PRES    WAVE
                       AIR SEA DIR/SP/G            HT/PER
                 (UTC) (F)     (DEG/KT/KT) (MB)    (FT/S)
S GREEN BAY BUOY 1900   67 70   10/  8/ 10 1015.9
N MID LAKE BUOY  1850   62 66  290/  8/ 12 1016.2R   2/ 4
NORTHPORT PIER   1840   65     330/ 10/ 14 1015.6S
KEWAUNEE LAKESHO 1848   69     300/  8/ 11 1015.4R
SHEBOYGAN LAKESH 1900   65      80/  5/  6 1016.4R
PORT WASHINGTON  1840   72     340/  6/ 12 1017.3F
ATWATER BUOY     1839   69 68   20/  8/ 10 1017.0S
MILWAUKEE LAKESH 1850   70      20/  8/  9   N/A
S MID LAKE BUOY  1850   66 71  350/ 12/ 14 1017.1F   3/ 5
KENOSHA   LAKESH 1900   69      70/  3/ 14 1016.6
$$

TC  - TEMPERATURE IN CELSIUS
VSB - VISIBILITY IN STATUTE MILES
WCI - WIND CHILL INDEX
HX  - HEAT INDEX





USA.gov is the U.S. government's official web portal to all federal, state and local government web resources and services.